CW0736 Weather Reports


Display with metric or nautical units.
time (UTC)temp
F
wind
direction
speed
MPH
gust
MPH
rain 1hr
in
rain 24hr
in
rain mn
in
humidity
%
barometer
mb
20260505003054 66 249 2.0 5.0 0.00 0.00 0.00 47 1003.5
20260505001516 67 261 1.0 4.0 0.00 0.00 0.00 45 1003.6
20260505000048 69 252 1.0 4.0 0.00 0.00 0.00 43 1003.7
20260504234534 69 239 2.0 7.0 0.00 0.00 0.00 42 1003.7
20260504233028 70 281 1.0 5.0 0.00 0.00 0.00 42 1003.6
20260504231514 70 248 1.0 6.0 0.00 0.00 0.00 40 1003.5
20260504230014 71 252 2.0 4.0 0.00 0.00 0.00 39 1003.6
20260504224520 71 257 2.0 6.0 0.00 0.00 0.00 40 1003.7
20260504223015 72 238 1.0 10.0 0.00 0.00 0.00 39 1003.6
20260504221507 72 262 3.0 8.0 0.00 0.00 0.00 38 1003.4
20260504220015 73 247 2.0 7.0 0.00 0.00 0.00 38 1003.4
20260504214511 73 265 4.0 9.0 0.00 0.00 0.00 36 1003.5
20260504213104 73 279 5.0 11.0 0.00 0.00 0.00 35 1003.6
20260504211550 74 264 3.0 9.0 0.00 0.00 0.00 39 1003.7
20260504210057 73 273 2.0 8.0 0.00 0.00 0.00 40 1003.7
20260504204556 73 263 4.0 13.0 0.00 0.00 0.00 40 1003.8
20260504203006 73 242 5.0 13.0 0.00 0.00 0.00 39 1003.9
20260504201505 73 271 3.0 9.0 0.00 0.00 0.00 42 1004.0
20260504200005 74 283 3.0 10.0 0.00 0.00 0.00 40 1004.1
20260504194559 73 234 3.0 13.0 0.00 0.00 0.00 44 1004.3
20260504193046 73 239 5.0 10.0 0.00 0.00 0.00 41 1004.7
20260504191603 72 252 4.0 12.0 0.00 0.00 0.00 43 1004.9
20260504191502 72 254 3.0 12.0 0.00 0.00 0.00 43 1004.9
20260504190002 72 236 5.0 9.0 0.00 0.00 0.00 44 1005.2
20260504184547 71 278 4.0 10.0 0.00 0.00 0.00 46 1005.4
20260504183047 71 227 4.0 11.0 0.00 0.00 0.00 48 1005.5
20260504181548 70 249 4.0 10.0 0.00 0.00 0.00 50 1005.9
20260504180041 69 224 4.0 14.0 0.00 0.00 0.00 51 1005.9
20260504174541 69 246 5.0 11.0 0.00 0.00 0.00 49 1006.1
20260504173043 69 230 5.0 10.0 0.00 0.00 0.00 50 1006.0
20260504171549 69 255 3.0 8.0 0.00 0.00 0.00 51 1006.0
20260504090114 50 242 2.0 5.0 0.00 0.00 0.00 61 1007.8
20260504081546 50 244 2.0 4.0 0.00 0.00 0.00 62 1008.5
20260504050001 53 244 4.0 9.0 0.00 0.00 0.00 58 1009.8
20260504044535 53 248 4.0 10.0 0.00 0.00 0.00 58 1010.0
20260504043025 53 265 3.0 9.0 0.00 0.00 0.00 58 1009.9
20260504041513 53 259 2.0 7.0 0.00 0.00 0.00 58 1009.8
20260504040044 53 246 3.0 9.0 0.00 0.00 0.00 57 1009.9
20260504034610 53 240 3.0 9.0 0.00 0.00 0.00 57 1009.7
20260504033050 53 248 2.0 6.0 0.00 0.00 0.00 57 1009.8
20260504031552 53 230 3.0 7.0 0.00 0.00 0.00 57 1009.8
20260504030058 53 240 3.0 9.0 0.00 0.00 0.00 59 1009.9
20260504024504 52 257 2.0 9.0 0.00 0.00 0.00 59 1010.0
20260504023004 53 241 2.0 7.0 0.00 0.00 0.00 59 1010.0
20260504021554 53 237 3.0 10.0 0.00 0.00 0.00 59 1010.1
20260504020051 53 232 2.0 4.0 0.00 0.00 0.00 61 1010.2
20260504014544 52 241 2.0 5.0 0.00 0.00 0.00 62 1010.1
20260504013048 52 259 3.0 12.0 0.00 0.00 0.00 66 1010.2
20260504011542 50 281 2.0 4.0 0.00 0.00 0.00 71 1010.3
20260504010058 49 254 1.0 3.0 0.00 0.00 0.00 79 1010.3
20260504004556 49 267 0.0 1.0 0.00 0.00 0.00 82 1010.7